• Join FlightAware (Why Join?)
  • Login
  • US Flag 
08:11PM EST


 

Airport Tracker/Info


-or-


 

Live Flight TrackerFlight Track Log ✈ N247PS ✈ 08-Mar-2014 ✈ KPBI - KSAV

Flight Track Log - Related Links

Times and Time Zones

All times are in EST time to prevent confusion due to time zone crossing. See the N247PS flight status page for this flight to view local times or setup timezone preferences in your user account.

Time Position Orientation Groundspeed Altitude Reporting Facility
EST Latitude Longitude Course Direction KTS MPH feet Rate Location/Type
10:45AM 26.7836 -80.2961 333° Northwest 249 287 9,800  Level Miami Center
10:46AM 26.8600 -80.3286 339° North 273 314 12,900 3,000 Climbing Miami Center
10:47AM 26.9386 -80.3589 341° North 295 339 15,800 2,650 Climbing Miami Center
10:48AM 27.0089 -80.3936 336° Northwest 306 352 18,200 2,450 Climbing Miami Center
10:49AM 26.9829 -80.3831 336° Northwest  Level FlightAware Approximate
10:49AM 27.0956 -80.4289 340° North 311 358 20,700  Level Miami Center
10:50AM 27.1761 -80.4639 339° North 311 358 23,200 2,150 Climbing Miami Center
10:51AM 27.2650 -80.4994 340° North 311 358 25,000 1,700 Climbing Miami Center
10:52AM 27.3539 -80.5372 339° North 321 369 26,600 1,550 Climbing Miami Center
10:53AM 27.4467 -80.5778 339° North 341 392 28,100 1,450 Climbing Miami Center
10:54AM 27.5458 -80.6183 340° North 353 406 29,500 1,300 Climbing Miami Center
10:55AM 27.6450 -80.6592 340° North 372 428 30,700 1,150 Climbing Miami Center
10:56AM 27.7483 -80.7047 339° North 383 441 31,800 1,150 Climbing Miami Center
10:57AM 27.8681 -80.7558 339° North 393 452 33,000 1,150 Climbing Miami Center
10:58AM 27.9753 -80.7994 340° North 411 473 34,100 800 Climbing Miami Center
10:59AM 28.0867 -80.8481 339° North 416 479 34,600 450 Climbing Miami Center
11:00AM 28.2000 -80.8944 340° North 423 487 35,000 200 Climbing Miami Center
11:01AM 28.3175 -80.9481 338° Northwest 442 509 35,000  Level Miami Center
11:02AM 28.4350 -80.9972 340° North 447 514 35,000  Level Miami Center
11:03AM 28.5525 -81.0489 339° North 447 514 35,000  Level Miami Center
11:04AM 28.6594 -81.0978 338° Northwest 447 514 35,000  Level Miami Center
11:05AM 28.7639 -81.1306 345° North 467 537 35,000  Level Jacksonville Center
11:06AM 28.8917 -81.1614 348° North 477 549 35,000  Level Jacksonville Center
11:07AM 29.0172 -81.1900 349° North 467 537 35,000  Level Jacksonville Center
11:08AM 29.1428 -81.2211 348° North 467 537 35,000  Level Jacksonville Center
11:09AM 29.2706 -81.2525 348° North 467 537 35,000  Level Jacksonville Center
11:10AM 29.3942 -81.2814 348° North 462 532 35,000  Level Jacksonville Center
11:11AM 29.5281 -81.3150 348° North 456 525 35,000  Level Jacksonville Center
11:12AM 29.6536 -81.3392 351° North 450 518 35,000 -454 Level Jacksonville Center
11:13AM 29.7769 -81.3394 360° North 467 537 34,100 -1,289 Descending Jacksonville Center
11:14AM 29.9086 -81.3494 356° North 472 543 32,400 -1,785 Descending Jacksonville Center
11:15AM 30.0381 -81.3569 357° North 472 543 30,500 -1,966 Descending Jacksonville Center
11:16AM 30.1697 -81.3644 357° North 472 543 28,500 -1,950 Descending Jacksonville Center
11:17AM 30.3014 -81.3744 356° North 472 543 26,600 -1,835 Descending Jacksonville Center
11:18AM 30.4350 -81.3819 357° North 472 543 24,800 -1,800 Descending Jacksonville Center
11:19AM 30.5583 -81.3897 357° North 465 535 23,000 -1,800 Descending Jacksonville Center
11:20AM 30.6775 -81.3997 356° North 446 513 21,200 -1,000 Descending Jacksonville Center
11:21AM 30.7922 -81.4053 358° North 423 487 21,000 -100 Descending Jacksonville Center
11:22AM 30.9072 -81.4156 356° North 418 481 21,000 -800 Level Jacksonville Center
11:23AM 31.0264 -81.4233 357° North 418 481 19,400 -1,600 Descending Jacksonville Center
11:24AM 31.1414 -81.4314 357° North 418 481 17,800 -1,700 Descending Jacksonville Center
11:25AM 31.2561 -81.4344 359° North 418 481 16,000 -1,950 Descending Jacksonville Center
11:26AM 31.3747 -81.4033 13° North 404 465 13,900 -1,916 Descending Jacksonville Center
11:27AM 31.4789 -81.3772 12° North 388 447 12,200 -1,300 Descending Jacksonville Center
11:28AM 31.5664 -81.3539 13° North 364 419 11,300 -793 Descending Jacksonville Center
11:29AM 31.6622 -81.3306 12° North 328 377 10,600 -1,150 Descending Jacksonville Center
11:30AM 31.7286 -81.3122 13° North 282 325 9,000 -1,300 Descending Jacksonville Center
11:31AM 31.8036 -81.2914 13° North 277 319 8,000 -1,900 Descending Jacksonville Center
11:32AM 31.8847 -81.2703 12° North 277 319 5,200 -2,650 Descending Jacksonville Center
11:33AM 31.9533 -81.2544 11° North 265 305 2,700 -1,650 Descending Jacksonville Center
11:34AM 32.0072 -81.2242 25° Northeast 238 274 1,900 -700 Descending Jacksonville Center
11:35AM 32.0531 -81.2036 21° North 194 223 1,300 -700 Descending Jacksonville Center
11:36AM 32.0947 -81.2053 358° North 138 159 500 -500 Descending Jacksonville Center
11:37AM 32.1281 -81.1997 North 138 159 300 -200 Descending Jacksonville Center
11:39AM 32.1276 -81.2021 North  Level Estimated
11:46AM 32.1276 -81.2021 North  Level Estimated